sat.trackr.live / text

‹ back to catalog

STARLINK-37123

NORAD 68275 · 2026-055P

PAYLOAD ACTIVE UNKNOWN

§ Identity

Operator
Country
US
Launch date
2026-03-19
Launch site
AFETR
Launch vehicle
Mass (kg)
RCS (m²)

Purposes: comms

External: N2YO · Heavens-Above · Gunter

§ Orbital elements

Epoch: 2026-09-19T22:30:17.224704Z

Period
93.85 min
Inclination
53.1569°
Eccentricity
0.0001213
Mean motion
15.34427178 rev/d
Perigee alt
461.8 km
Apogee alt
463.5 km
Semi-major
6,840.8 km
B*
3.2731e-4
RAAN
132.5703°
Arg perigee
162.4250°
Mean anomaly
197.6794°
Rev number
2,973

§ Raw data

STARLINK-371231 68275U 26055P   26262.93769936  .00010708  00000+0  32731-3 0  99902 68275  53.1569 132.5703 0001213 162.4250 197.6794 15.34427178 29733

JSON: /api/v1/satellites/68275 · /tle

For live sub-satellite position, see the globe view (requires WebGL).

§ Visibility from observer

Set your observer location to see the next 7 days of passes ≥ 10°. The values pass through the URL so the page stays shareable.

No JS? Fill the form by hand. The geolocation button needs JavaScript.